DW6157 Weather Reports


Display with metric or nautical units.
time (UTC)temp
F
wind
direction
speed
MPH
gust
MPH
rain 1hr
in
rain 24hr
in
rain mn
in
humidity
%
barometer
mb
20260831101600 71 200 0.0 5.0 0.00 0.01 0.01 73 1003.5
20260831100104 70 200 0.0 5.0 0.00 0.01 0.01 74 1003.5
20260831094601 69 234 1.0 5.0 0.00 0.05 0.01 76 1003.4
20260831093058 68 106 0.0 4.0 0.00 0.05 0.01 74 1003.4
20260831091600 70 205 0.0 0.0 0.00 0.05 0.01 73 1003.5
20260831090052 69 229 0.0 0.0 0.00 0.05 0.01 75 1003.4
20260831084559 68 229 0.0 0.0 0.00 0.05 0.01 78 1003.3
20260831083046 67 229 0.0 0.0 0.00 0.05 0.01 82 1003.2
20260831081543 66 229 0.0 0.0 0.00 0.05 0.01 83 1003.3
20260831080042 65 222 0.0 0.0 0.00 0.05 0.01 85 1003.3
20260831074539 63 299 0.0 0.0 0.00 0.05 0.01 84 1003.3
20260831073038 64 246 0.0 2.0 0.00 0.05 0.01 88 1003.3
20260831071535 64 263 0.0 2.0 0.00 0.05 0.01 89 1003.3
20260831070037 63 233 0.0 0.0 0.00 0.05 0.01 93 1003.2
20260831064529 62 233 0.0 0.0 0.00 0.05 0.01 95 1003.2
20260831063026 60 233 0.0 0.0 0.00 0.05 0.01 97 1003.2
20260831061522 59 233 0.0 0.0 0.00 0.05 0.01 98 1003.0
20260831060020 56 233 0.0 0.0 0.00 0.05 0.01 97 1002.8
20260831054518 54 233 0.0 0.0 0.00 0.05 0.01 97 1002.7
20260831053021 53 232 0.0 0.0 0.00 0.05 0.01 97 1002.6
20260831051516 53 232 0.0 0.0 0.00 0.05 0.01 97 1002.6
20260831050017 52 232 0.0 0.0 0.00 0.05 0.01 97 1002.5
20260831044513 53 231 0.0 0.0 0.00 0.05 0.01 96 1002.4
20260831043009 54 231 0.0 0.0 0.00 0.05 0.01 96 1002.3
20260831041507 55 231 0.0 0.0 0.00 0.05 0.01 97 1002.2
20260831040007 55 231 0.0 0.0 0.00 0.05 0.01 97 1002.2
20260831034505 55 231 0.0 0.0 0.00 0.05 0.01 97 1002.1
20260831033008 55 231 0.0 0.0 0.00 0.05 0.01 97 1002.0
20260831031509 56 231 0.0 0.0 0.00 0.05 0.01 97 1001.9
20260831030002 56 231 0.0 0.0 0.00 0.05 0.01 97 1001.9
20260831024502 56 231 0.0 0.0 0.00 0.10 0.01 97 1001.7
20260831023101 55 231 0.0 0.0 0.00 0.10 0.01 97 1001.7
20260831021559 56 231 0.0 0.0 0.00 0.10 0.01 96 1001.8
20260831020059 56 231 0.0 0.0 0.01 0.10 0.01 97 1001.7
20260831014559 56 231 0.0 0.0 0.01 0.10 0.01 97 1001.7
20260831013058 55 231 0.0 0.0 0.01 0.10 0.01 96 1001.7
20260831011557 55 231 0.0 0.0 0.01 0.10 0.01 97 1001.7
20260831010057 55 231 0.0 0.0 0.00 0.09 0.00 96 1001.8
20260831004556 55 231 0.0 0.0 0.00 0.09 0.00 96 1001.9
20260831003101 55 231 0.0 0.0 0.00 0.09 0.00 96 1001.8
20260831001557 55 231 0.0 0.0 0.00 0.09 0.00 96 1001.8
20260831000052 55 229 0.0 0.0 0.00 0.09 0.00 95 1001.8
20260830234601 56 227 0.0 0.0 0.00 0.11 0.00 96 1001.7
20260830233051 56 226 0.0 0.0 0.00 0.11 0.00 96 1001.8
20260830231551 55 226 0.0 0.0 0.00 0.11 0.00 96 1001.6
20260830230049 55 226 0.0 0.0 0.00 0.11 0.00 95 1001.7
20260830224550 56 223 0.0 0.0 0.00 0.11 0.00 95 1001.6
20260830223048 56 223 0.0 0.0 0.00 0.11 0.00 95 1001.7
20260830221543 57 223 0.0 0.0 0.00 0.11 0.00 95 1001.7
20260830220041 57 223 0.0 0.0 0.00 0.11 0.00 94 1001.6
20260830214552 58 220 0.0 0.0 0.00 0.11 0.11 95 1001.5
20260830213038 58 220 0.0 0.0 0.00 0.11 0.11 94 1001.5
20260830211535 60 214 0.0 0.0 0.00 0.11 0.11 95 1001.5
20260830210036 60 210 0.0 0.0 0.00 0.11 0.11 94 1001.3
20260830204533 60 210 0.0 0.0 0.00 0.11 0.11 94 1001.3
20260830203046 61 210 0.0 0.0 0.00 0.11 0.11 94 1001.4
20260830201532 61 210 0.0 0.0 0.00 0.11 0.11 93 1001.3
20260830200032 62 210 0.0 0.0 0.00 0.11 0.11 93 1001.2
20260830194531 63 210 0.0 0.0 0.00 0.11 0.11 92 1001.3
20260830193030 63 210 0.0 0.0 0.00 0.11 0.11 92 1001.2
20260830191528 63 210 0.0 0.0 0.00 0.11 0.11 92 1001.2
20260830190030 64 210 0.0 0.0 0.00 0.11 0.11 91 1001.3
20260830184532 64 210 0.0 0.0 0.00 0.11 0.11 91 1001.2
20260830183026 64 210 0.0 0.0 0.00 0.11 0.11 91 1000.9
20260830181524 64 210 0.0 0.0 0.00 0.11 0.11 91 1000.9
20260830180023 64 210 0.0 0.0 0.00 0.11 0.11 92 1000.9
20260830174523 64 210 0.0 0.0 0.00 0.11 0.11 91 1000.8
20260830173033 64 210 0.0 0.0 0.00 0.11 0.11 91 1000.7
20260830171521 64 200 0.0 5.0 0.00 0.11 0.11 91 1000.6
20260830170027 64 210 0.0 0.0 0.00 0.11 0.11 90 1000.5
20260830164520 64 214 0.0 0.0 0.00 0.11 0.11 90 1000.6
20260830163031 64 210 0.0 5.0 0.00 0.11 0.11 90 1000.6
20260830161519 64 205 4.0 11.0 0.00 0.11 0.11 90 1000.7
20260830160019 64 200 4.0 9.0 0.00 0.11 0.11 89 1000.6
20260830154521 64 226 3.0 10.0 0.00 0.11 0.11 89 1000.6
20260830153018 65 193 4.0 9.0 0.00 0.11 0.11 88 1000.5
20260830151517 65 210 5.0 9.0 0.00 0.11 0.11 86 1000.6
20260830150017 66 233 5.0 11.0 0.00 0.11 0.11 84 1000.6
20260830144522 67 200 5.0 11.0 0.00 0.11 0.11 84 1000.6
20260830143021 67 221 6.0 12.0 0.00 0.11 0.11 84 1000.6
20260830141515 68 190 6.0 10.0 0.00 0.11 0.11 83 1000.7
20260830140014 68 193 4.0 12.0 0.00 0.11 0.11 81 1000.7
20260830134515 69 195 5.0 11.0 0.00 0.11 0.11 84 1000.6
20260830133009 67 205 4.0 10.0 0.00 0.11 0.11 85 1000.5
20260830131517 65 205 5.0 12.0 0.00 0.11 0.11 88 1000.6
20260830130008 66 210 4.0 10.0 0.00 0.11 0.11 87 1000.6
20260830124507 66 200 5.0 12.0 0.00 0.14 0.11 86 1000.5
20260830123007 67 193 7.0 11.0 0.00 0.14 0.11 85 1000.3
20260830121505 67 210 5.0 13.0 0.00 0.14 0.11 85 1000.4
20260830120007 68 214 5.0 11.0 0.00 0.14 0.11 85 1000.4
20260830114504 68 205 3.0 11.0 0.00 0.14 0.11 88 1000.4
20260830113003 68 224 6.0 13.0 0.00 0.14 0.11 88 1000.3
20260830111501 67 205 4.0 12.0 0.00 0.14 0.11 88 1000.4
20260830104610 65 210 6.0 12.0 0.00 0.15 0.11 92 1000.4
20260830103056 64 210 6.0 12.0 0.01 0.15 0.11 92 1000.5